sat.trackr.live / text

‹ back to catalog

STARLINK-31539

NORAD 59539 · 2024-074F

PAYLOAD ACTIVE UNKNOWN

§ Identity

Operator
Country
US
Launch date
2024-04-18
Launch site
AFETR
Launch vehicle
Mass (kg)
RCS (m²)

Purposes: comms

External: N2YO · Heavens-Above · Gunter

§ Orbital elements

Epoch: 2026-05-25T01:30:02.523744Z

Period
94.27 min
Inclination
43.0038°
Eccentricity
0.0001323
Mean motion
15.27579572 rev/d
Perigee alt
482.1 km
Apogee alt
484.0 km
Semi-major
6,861.2 km
B*
2.5419e-5
RAAN
272.2900°
Arg perigee
282.7818°
Mean anomaly
77.2886°
Rev number
11,769

§ Raw data

STARLINK-315391 59539U 24074F   26145.06252921  .00000437  00000+0  25419-4 0  99912 59539  43.0038 272.2900 0001323 282.7818  77.2886 15.27579572117690

JSON: /api/v1/satellites/59539 · /tle

For live sub-satellite position, see the globe view (requires WebGL).

§ Visibility from observer

Set your observer location to see the next 7 days of passes ≥ 10°. The values pass through the URL so the page stays shareable.

No JS? Fill the form by hand. The geolocation button needs JavaScript.